Location: Lombard
(41.8800°N, 88.0080°W)
Time: 14:22:50
(UTC-06:00)

Transit 4A - Pass Details

Date: 03 December 2023
Orbit: 870 x 973 km, 66.8° (Epoch: 03 March)

Event Time Altitude Azimuth Distance (km) Brightness Sun altitude
Rises 20:22:20 0° 215° (SW) 3,653 11.3 -44.1°
Enters shadow 20:23:40 - 216° (SW) 3,159 10.9 -44.4°
Reaches altitude 10° 20:24:54 10° 217° (SW) 2,711 - -44.6°
Maximum altitude 20:31:15 73° 302° (WNW) 1,016 - -45.7°
Drops below altitude 10° 20:37:34 10° 27° (NNE) 2,699 - -46.9°
Sets 20:40:08 0° 29° (NNE) 3,636 - -47.4°
